Location: Pella
(41.4080°N, 92.9160°W)
Time: 21:28:44
(UTC-05:00)

ASTRO E2 - Visible Passes

Search period start: 27 March 2017 00:00
Search period end: 06 April 2017 00:00
Orbit: 516 x 522 km, 31.4° (Epoch: 26 March)

Date Brightness Start Highest point End Pass type
(mag) Time Alt. Az. Time Alt. Az. Time Alt. Az.
01 Apr 4.9 20:51:10 10° S 20:52:07 11° SSE 20:52:07 11° SSE visible
02 Apr 4.8 20:33:47 10° S 20:35:27 12° SSE 20:36:36 11° SE visible
03 Apr 4.8 20:16:36 10° SSW 20:18:35 13° SSE 20:20:35 10° SE visible
03 Apr 5.3 21:55:32 10° SW 21:55:58 12° SW 21:55:58 12° SW visible
04 Apr 4.8 21:38:41 10° SW 21:40:16 17° SSW 21:40:16 17° SSW visible
05 Apr 4.4 21:21:52 10° SW 21:24:31 19° S 21:24:31 19° S visible
